Sedona, AZ

1:02 PM MST on June 27, 2017 (GMT -0700)
Sedona

Weather History for KSEZ - October, 2013

Change the Weather History Date:

Monday, October 7, 2013

  Actual Average Record
Temperature  
Mean Temperature 68 °F -  
Max Temperature 80 °F 81 °F 82 °F (2012)
Min Temperature 55 °F 51 °F 41 °F (2011)
Cooling Degree Days 2    
Growing Degree Days 18 (Base 50)    
Moisture  
Dew Point 21 °F    
Average Humidity 18    
Maximum Humidity 26    
Minimum Humidity 12    
Precipitation  
Precipitation 0.00 in - - ()
Sea Level Pressure  
Sea Level Pressure 30.16 in    
Wind  
Wind Speed 10 mph (ESE)    
Max Wind Speed 15 mph    
Max Gust Speed 18 mph    
Visibility 10 miles    
Events      
Averages and records for this station are not official NWS values.
T = Trace of Precipitation, MM = Missing Value Source: NWS Daily Summary

Daily Weather History Graph

Daily Weather History Graph

Search for Another Location

Airport or City:

Trip Planner

Search our weather history database for the weather conditions in past years. The results will help you decide how hot, cold, wet, or windy it might be!

Date:

Astronomy

Oct. 07, 2013 Rise Set
Actual Time 6:26 AM MST 6:02 PM MST
Civil Twilight 6:01 AM MST 6:27 PM MST
Nautical Twilight 5:32 AM MST 6:56 PM MST
Astronomical Twilight 5:02 AM MST 7:26 PM MST
Moon 9:13 AM MST (10/7) 7:58 PM MST (10/7)
Length of Visible Light 12h 26m
Length of Day
11h 35m
Waxing Crescent, 9% of the Moon is Illuminated
Oct 7
Waxing Crescent
Oct 11
First Quarter
Oct 18
Full
Oct 26
Last Quarter
Nov 3
New

Hourly Weather History & Observations

Time (MST) Temp. Dew Point Humidity Pressure Visibility Wind Dir Wind Speed Gust Speed Precip Events Conditions
12:15 AM 60.8 °F 14.0 °F 16% 30.22 in 10.0 mi NE 15.0 mph - N/A   Clear
12:35 AM 60.8 °F 14.0 °F 16% 30.23 in 10.0 mi ENE 12.7 mph - N/A   Clear
12:55 AM 60.8 °F 14.0 °F 16% 30.22 in 10.0 mi ENE 13.8 mph - N/A   Clear
1:15 AM 60.8 °F 14.0 °F 16% 30.22 in 10.0 mi ENE 13.8 mph - N/A   Clear
1:35 AM 60.8 °F 14.0 °F 16% 30.22 in 10.0 mi ENE 13.8 mph - N/A   Clear
1:55 AM 60.8 °F 14.0 °F 16% 30.21 in 10.0 mi ENE 13.8 mph - N/A   Clear
2:15 AM 60.8 °F 15.8 °F 17% 30.21 in 10.0 mi NE 13.8 mph - N/A   Clear
2:35 AM 60.8 °F 17.6 °F 19% 30.21 in 10.0 mi ENE 11.5 mph - N/A   Clear
2:55 AM 59.0 °F 17.6 °F 20% 30.21 in 10.0 mi NE 11.5 mph 17.3 mph N/A   Clear
3:15 AM 59.0 °F 17.6 °F 20% 30.21 in 10.0 mi ENE 12.7 mph - N/A   Clear
3:35 AM 60.8 °F 17.6 °F 19% 30.20 in 10.0 mi ENE 12.7 mph - N/A   Clear
3:55 AM 59.0 °F 17.6 °F 20% 30.20 in 10.0 mi ENE 13.8 mph - N/A   Clear
4:15 AM 59.0 °F 17.6 °F 20% 30.20 in 10.0 mi NE 13.8 mph - N/A   Clear
4:35 AM 59.0 °F 17.6 °F 20% 30.21 in 10.0 mi NE 13.8 mph - N/A   Clear
4:55 AM 59.0 °F 17.6 °F 20% 30.21 in 10.0 mi NE 11.5 mph - N/A   Clear
5:15 AM 59.0 °F 17.6 °F 20% 30.21 in 10.0 mi NE 10.4 mph - N/A   Clear
5:35 AM 57.2 °F 17.6 °F 21% 30.21 in 10.0 mi ENE 12.7 mph - N/A   Clear
5:55 AM 57.2 °F 17.6 °F 21% 30.21 in 10.0 mi ENE 12.7 mph - N/A   Clear
6:15 AM 57.2 °F 17.6 °F 21% 30.22 in 10.0 mi NE 11.5 mph 18.4 mph N/A   Clear
6:35 AM 55.4 °F 17.6 °F 23% 30.22 in 10.0 mi NE 13.8 mph - N/A   Clear
6:55 AM 55.4 °F 19.4 °F 25% 30.22 in 10.0 mi NE 13.8 mph - N/A   Clear
7:15 AM 57.2 °F 19.4 °F 23% 30.22 in 10.0 mi NE 12.7 mph - N/A   Clear
7:35 AM 59.0 °F 19.4 °F 22% 30.22 in 10.0 mi NE 10.4 mph - N/A   Clear
7:55 AM 60.8 °F 21.2 °F 22% 30.22 in 10.0 mi NE 11.5 mph 17.3 mph N/A   Clear
8:15 AM 62.6 °F 21.2 °F 20% 30.23 in 10.0 mi ENE 6.9 mph - N/A   Clear
8:35 AM 62.6 °F 23.0 °F 22% 30.23 in 10.0 mi East 6.9 mph - N/A   Clear
8:55 AM 64.4 °F 24.8 °F 22% 30.22 in 10.0 mi ENE 6.9 mph - N/A   Clear
9:15 AM 68.0 °F 26.6 °F 21% 30.22 in 10.0 mi East 4.6 mph - N/A   Clear
9:35 AM 64.4 °F 28.4 °F 26% 30.22 in 10.0 mi South 3.5 mph - N/A   Clear
9:55 AM 68.0 °F 28.4 °F 23% 30.22 in 10.0 mi South 3.5 mph - N/A   Clear
10:15 AM 71.6 °F 28.4 °F 20% 30.21 in 10.0 mi South 3.5 mph - N/A   Clear
10:35 AM 71.6 °F 28.4 °F 20% 30.21 in 10.0 mi SSE 3.5 mph - N/A   Clear
10:55 AM 71.6 °F 26.6 °F 19% 30.21 in 10.0 mi West 3.5 mph - N/A   Clear
11:15 AM 73.4 °F 26.6 °F 18% 30.20 in 10.0 mi West 3.5 mph - N/A   Clear
11:35 AM 77.0 °F 26.6 °F 16% 30.19 in 10.0 mi South 3.5 mph - N/A   Clear
11:55 AM 75.2 °F 26.6 °F 17% 30.18 in 10.0 mi South 3.5 mph - N/A   Clear
12:15 PM 75.2 °F 26.6 °F 17% 30.17 in 10.0 mi SSE 5.8 mph - N/A   Clear
12:35 PM 77.0 °F 28.4 °F 17% 30.17 in 10.0 mi South 4.6 mph - N/A   Clear
12:55 PM 75.2 °F 26.6 °F 17% 30.16 in 10.0 mi SSW 3.5 mph - N/A   Clear
1:15 PM 75.2 °F 26.6 °F 17% 30.14 in 10.0 mi SSW 5.8 mph - N/A   Clear
1:35 PM 77.0 °F 26.6 °F 16% 30.14 in 10.0 mi SSW 6.9 mph - N/A   Clear
1:55 PM 78.8 °F 26.6 °F 15% 30.13 in 10.0 mi SE 8.1 mph - N/A   Clear
2:15 PM 78.8 °F 23.0 °F 13% 30.12 in 10.0 mi SSE 4.6 mph - N/A   Clear
2:35 PM 80.6 °F 24.8 °F 13% 30.12 in 10.0 mi SSE 9.2 mph - N/A   Clear
2:55 PM 78.8 °F 23.0 °F 13% 30.11 in 10.0 mi SSE 6.9 mph - N/A   Clear
3:15 PM 78.8 °F 23.0 °F 13% 30.10 in 10.0 mi SSE 11.5 mph - N/A   Clear
3:35 PM 78.8 °F 23.0 °F 13% 30.10 in 10.0 mi South 4.6 mph - N/A   Clear
3:55 PM 77.0 °F 21.2 °F 12% 30.10 in 10.0 mi South 6.9 mph - N/A   Clear
4:15 PM 77.0 °F 21.2 °F 12% 30.10 in 10.0 mi South 6.9 mph - N/A   Clear
4:35 PM 77.0 °F 21.2 °F 12% 30.10 in 10.0 mi SSW 6.9 mph - N/A   Clear
4:55 PM 75.2 °F 21.2 °F 13% 30.10 in 10.0 mi SSW 6.9 mph - N/A   Clear
5:15 PM 73.4 °F 21.2 °F 14% 30.10 in 10.0 mi South 6.9 mph - N/A   Clear
5:35 PM 73.4 °F 19.4 °F 13% 30.10 in 10.0 mi South 6.9 mph - N/A   Clear
5:55 PM 71.6 °F 19.4 °F 14% 30.09 in 10.0 mi South 9.2 mph - N/A   Clear
6:15 PM 71.6 °F 19.4 °F 14% 30.09 in 10.0 mi South 5.8 mph - N/A   Clear
6:35 PM 69.8 °F 21.2 °F 16% 30.09 in 10.0 mi South 6.9 mph - N/A   Clear
6:55 PM 69.8 °F 19.4 °F 15% 30.09 in 10.0 mi SSE 5.8 mph - N/A   Clear
7:15 PM 69.8 °F 21.2 °F 16% 30.08 in 10.0 mi South 4.6 mph - N/A   Clear
7:35 PM 68.0 °F 21.2 °F 17% 30.08 in 10.0 mi SSE 3.5 mph - N/A   Clear
7:55 PM 69.8 °F 21.2 °F 16% 30.09 in 10.0 mi Calm Calm - N/A   Clear
8:15 PM 68.0 °F 21.2 °F 17% 30.09 in 10.0 mi Calm Calm - N/A   Clear
8:35 PM 69.8 °F 21.2 °F 16% 30.09 in 10.0 mi Calm Calm - N/A   Clear
8:55 PM 68.0 °F 21.2 °F 17% 30.09 in 10.0 mi Calm Calm - N/A   Clear
9:15 PM 68.0 °F 21.2 °F 17% 30.09 in 10.0 mi Calm Calm - N/A   Clear
9:35 PM 68.0 °F 21.2 °F 17% 30.10 in 10.0 mi Calm Calm - N/A   Clear
9:55 PM 64.4 °F 21.2 °F 19% 30.10 in 10.0 mi Calm Calm - N/A   Clear
10:15 PM 66.2 °F 21.2 °F 18% 30.10 in 10.0 mi Calm Calm - N/A   Clear
10:35 PM 66.2 °F 21.2 °F 18% 30.09 in 10.0 mi Calm Calm - N/A   Clear
10:55 PM 66.2 °F 21.2 °F 18% 30.08 in 10.0 mi Calm Calm - N/A   Clear
11:15 PM 64.4 °F 21.2 °F 19% 30.08 in 10.0 mi Calm Calm - N/A   Clear
11:35 PM 64.4 °F 23.0 °F 21% 30.07 in 10.0 mi Calm Calm - N/A   Clear
11:55 PM 64.4 °F 21.2 °F 19% 30.07 in 10.0 mi Calm Calm - N/A   Clear